This demonstration page uses our WeatherBlox Daily Observations layout. Learn more.

Left ArrowRight Arrow

34.74481, -87.66753

Hourly Observations for September 11, 2019

Temp ( °F °C ) Dew Point ( °F °C ) Humidity (%) Winds ( mph kmh ) Pressure ( in mb ) Visibility ( mi km ) Precip ( " mm )
12:53 am 00:53 Clear 73 22.8 70 21.1 90 90 E 5 7 30.18 1022 10 16 0.00 0.00
1:53 am 01:53 Clear 73 22.8 69 20.6 87 87 Calm 30.17 1022 9 14 0.00 0.00
2:53 am 02:53 Clear 73 22.8 69 20.6 87 87 Calm 30.17 1022 8 13 0.00 0.00
3:53 am 03:53 Clear with Mist and Fog 71 21.7 69 20.6 94 94 E 3 6 30.17 1022 5 8 0.00 0.00
4:53 am 04:53 Clear 73 22.8 70 21.1 90 90 Calm 30.19 1022 7 11 0.00 0.00
5:53 am 05:53 Clear 72 22.2 69 20.6 91 91 Calm 30.20 1023 7 11 0.00 0.00
6:53 am 06:53 Sunny with Mist and Fog 71 21.7 69 20.6 94 94 Calm 30.23 1024 4 6 0.00 0.00
7:53 am 07:53 Sunny 76 24.4 71 21.7 85 85 ESE 6 9 30.24 1024 9 14 0.00 0.00
8:53 am 08:53 Sunny 80 26.7 70 21.1 71 71 SE 6 9 30.25 1024 10 16 0.00 0.00
9:53 am 09:53 Sunny 85 29.4 71 21.7 63 63 VRB 3 6 30.24 1024 10 16 0.00 0.00
10:53 am 10:53 Sunny 89 31.7 71 21.7 55 55 Calm 30.23 1024 10 16 0.00 0.00
11:53 am 11:53 Sunny 93 33.9 70 21.1 47 47 NNE 6 9 30.22 1023 10 16 0.00 0.00
12:53 pm 12:53 Sunny 94 34.4 69 20.6 44 44 NE 5 7 30.20 1023 10 16 0.00 0.00
1:53 pm 13:53 Partly Cloudy 93 33.9 69 20.6 46 46 NNW 5 7 30.17 1022 10 16 0.00 0.00
2:46 pm 14:46 Partly Cloudy with Nearby Thunderstorms 98 36.7 69 20.6 39 39 WNW 6 9 30.13 1020 10 16 0.00 0.00
2:53 pm 14:53 Partly Cloudy with Thunderstorms 95 35 68 20 41 41 WNW 6 9 30.15 1021 10 16 0.00 0.00
3:40 pm 15:40 Mostly Cloudy with Thunderstorms 83 28.3 68 20 61 61 SW 21 33 30.15 1021 9 14 0.00 0.00
3:53 pm 15:53 Cloudy with Thunderstorms 79 26.1 71 21.7 77 77 W 6 9 30.16 1021 10 16 0.01 0.25
4:09 pm 16:09 Partly Cloudy with Light Rain 79 26.1 72 22.2 79 79 W 7 11 30.16 1021 10 16 0.00 0.00
4:53 pm 16:53 Mostly Cloudy 77 25 70 21.1 79 79 S 5 7 30.16 1021 10 16 0.00 0.00
5:53 pm 17:53 Sunny 79 26.1 72 22.2 79 79 S 5 7 30.13 1020 10 16 0.00 0.00
6:53 pm 18:53 Partly Cloudy 78 25.6 73 22.8 85 85 ENE 7 11 30.12 1020 10 16 0.00 0.00
7:53 pm 19:53 Clear 77 25 72 22.2 85 85 Calm 30.13 1020 10 16 0.00 0.00
8:53 pm 20:53 Clear 75 23.9 72 22.2 90 90 Calm 30.13 1020 10 16 0.00 0.00
9:53 pm 21:53 Clear 75 23.9 71 21.7 88 88 SE 3 6 30.14 1021 10 16 0.00 0.00
10:53 pm 22:53 Clear 74 23.3 71 21.7 91 91 Calm 30.13 1020 9 14 0.00 0.00
11:53 pm 23:53 Clear 73 22.8 70 21.1 90 90 W 3 6 30.13 1020 8 13 0.00 0.00

Powered by AerisWeather